Location: Big Meadows
(38.5260°N, 78.4400°W)
Time: 03:08:33
(UTC-04:00)

H-2A R/B - Visible Passes

Search period start: 30 April 2016 00:00
Search period end: 10 May 2016 00:00
Orbit: 733 x 838 km, 98.4° (Epoch: 29 April)

Date Brightness Start Highest point End Pass type
(mag) Time Alt. Az. Time Alt. Az. Time Alt. Az.
30 Apr 3.9 21:53:18 14° ENE 21:53:43 14° ENE 21:56:18 10° NNE visible
30 Apr 2.9 23:33:56 45° NW 23:33:56 45° NW 23:37:30 10° NNW visible
01 May 2.4 23:02:46 54° NNE 23:02:46 54° NNE 23:06:47 10° N visible
02 May 4.6 00:43:24 11° WNW 00:43:24 11° WNW 00:43:52 10° WNW visible
02 May 2.9 22:31:37 32° ENE 22:31:37 32° ENE 22:35:40 10° N visible
03 May 3.9 00:12:14 22° WNW 00:12:14 22° WNW 00:14:51 10° NW visible
03 May 3.7 22:00:27 17° ENE 22:00:55 17° ENE 22:03:58 10° NNE visible
03 May 2.9 23:41:04 42° NW 23:41:04 42° NW 23:44:43 10° NNW visible
04 May 2.2 23:09:55 62° NNE 23:09:55 62° NNE 23:14:05 10° N visible
05 May 2.7 22:38:45 37° ENE 22:38:45 37° ENE 22:43:05 10° N visible
06 May 4.0 00:19:22 20° WNW 00:19:22 20° WNW 00:21:51 10° NW visible
06 May 3.5 22:07:35 19° ENE 22:08:06 19° ENE 22:11:33 10° NNE visible
06 May 3.0 23:48:13 38° WNW 23:48:13 38° WNW 23:51:53 10° NNW visible
07 May 2.1 23:17:03 69° NNW 23:17:03 69° NNW 23:21:21 10° NNW visible
08 May 2.4 22:45:54 44° ENE 22:45:54 44° ENE 22:50:26 10° N visible
09 May 4.1 00:26:31 17° WNW 00:26:31 17° WNW 00:28:46 10° NW visible
09 May 3.3 22:14:44 22° ENE 22:15:17 23° ENE 22:19:04 10° NNE visible
09 May 3.2 23:55:22 34° WNW 23:55:22 34° WNW 23:59:01 10° NNW visible
